Simultaneous Nadir Overpasses (SNOs) Predictions

Prediction of SNOs between METOP-B and NOAA-19 Satellite Orbit:

Table of predicted SNOs for the next 14.0 days since TLE Epoch: 3/26/2022
Index Date (METOP-B) Time (METOP-B) Lat,Lon (METOP-B) SZA (METOP-B ) Date (NOAA-19) Time (NOAA-19) Lat,Lon (NOAA-19) SZA (NOAA-19 ) Distance(km) Time Diff (sec)
1 03/28/2022 05:29:20 -80.79, -49.86 100.89 03/28/2022 05:28:04 -80.79, -49.71 100.91 2.59 76
2 03/28/2022 06:20:00 80.80, 117.64 79.12 03/28/2022 06:19:01 80.79, 117.63 79.09 0.90 59
3 03/28/2022 07:10:42 -80.78, -75.33 100.94 03/28/2022 07:10:04 -80.79, -75.19 100.93 2.82 38
4 03/28/2022 08:01:22 80.79, 92.17 79.07 03/28/2022 08:01:01 80.79, 92.15 79.07 0.28 21
5 03/28/2022 08:52:03 -80.79,-100.46 100.94 03/28/2022 08:52:03 -80.78,-100.30 100.93 3.02 0
6 03/28/2022 09:42:44 80.78, 66.69 79.03 03/28/2022 09:43:01 80.79, 66.67 79.04 0.88 17
7 03/28/2022 10:33:25 -80.79,-125.94 100.98 03/28/2022 10:34:03 -80.78,-125.78 100.96 2.81 38
8 03/28/2022 11:24:05 80.80, 41.56 79.03 03/28/2022 11:25:00 80.78, 41.55 79.04 1.57 55
9 03/28/2022 12:14:49 -80.74,-152.11 101.12 03/28/2022 12:15:57 -80.72,-149.09 100.84 54.08 68
10 04/08/2022 10:56:10 80.81, 48.73 74.94 04/08/2022 10:55:02 80.80, 48.77 74.91 1.28 68
11 04/08/2022 11:46:51 -80.81,-143.88 105.07 04/08/2022 11:46:07 -80.80,-144.00 105.11 2.49 44
12 04/08/2022 12:37:31 80.80, 23.25 74.89 04/08/2022 12:37:01 80.80, 23.29 74.88 0.73 30
13 04/08/2022 13:28:12 -80.80,-169.36 105.12 04/08/2022 13:28:06 -80.80,-169.49 105.14 2.26 6
14 04/08/2022 14:18:53 80.79, -2.23 74.85 04/08/2022 14:19:01 80.80, -2.20 74.86 0.94 8
15 04/08/2022 15:09:34 -80.79, 165.16 105.16 04/08/2022 15:10:06 -80.80, 165.03 105.16 2.32 32
16 04/08/2022 16:00:15 80.78, -27.71 74.80 04/08/2022 16:01:01 80.80, -27.69 74.83 1.65 46



Historial Predications of SNOs between METOP-B and NOAA-19
